Location: �mondeville
(49.4591°N, 1.3431°W)
Time: 11:23:47
(UTC+00:00)

ATLAS 3B R/B - Pass Details

Date: 22 October 2019
Orbit: 1029 x 1166 km, 63.8° (Epoch: 10 November)

Event Time Altitude Azimuth Distance (km) Brightness Sun altitude
Exits shadow 03:50:38 67° 277° (W) 1,134 2.5 -27.5°
Maximum altitude 03:51:22 73° 234° (SW) 1,098 2.5 -27.4°
Drops below altitude 10° 03:58:10 10° 151° (SSE) 2,898 5.1 -26.3°
Sets 04:00:50 0° 149° (SSE) 3,870 5.8 -25.9°
